When you browse on this site, cookies collect data to enhance your experience and personalize the content and advertising you see.
Visit our Privacy Policy to learn more. By continuing to use the site, you agree to this use of cookies and data.
  • In Hungary
  • List of Countries
  • For 7 days
  • Water Temperature
  • Weather Map
  • News
  • Weather Widgets
  • user-avatar
    Login

    Hourly Weather Malyy Shustruy

    Today, 17 October, Thursday

    Time Temperature Precipitation Wind Pressure Humidity
    00:00 +3°C° 0 mm 6 mps 754 mmHg 62%
    01:00 +3°C° 0 mm 5 mps 754 mmHg 65%
    02:00 +4°C° 0 mm 4 mps 754 mmHg 67%
    03:00 +5°C° 0 mm 5 mps 754 mmHg 69%
    04:00 +3°C° 0 mm 5 mps 754 mmHg 71%
    05:00 +3°C° 0 mm 5 mps 753 mmHg 73%
    06:00 +4°C° 0 mm 4 mps 753 mmHg 75%
    07:00 +5°C° 0 mm 5 mps 753 mmHg 76%
    08:00 +5°C° 0 mm 6 mps 752 mmHg 77%
    09:00 +6°C° 0 mm 7 mps 752 mmHg 75%
    10:00 +9°C° 0 mm 7 mps 752 mmHg 74%
    11:00 +10°C° 0 mm 7 mps 752 mmHg 72%
    12:00 +12°C° 0 mm 8 mps 751 mmHg 70%
    13:00 +12°C° 0 mm 7 mps 751 mmHg 70%
    14:00 +12°C° 0 mm 7 mps 750 mmHg 71%
    15:00 +12°C° 0 mm 7 mps 750 mmHg 71%
    16:00 +13°C° 0 mm 6 mps 750 mmHg 74%
    17:00 +11°C° 0 mm 6 mps 750 mmHg 77%
    18:00 +10°C° 0 mm 6 mps 749 mmHg 81%
    19:00 +10°C° 0 mm 5 mps 749 mmHg 82%
    20:00 +10°C° 0 mm 5 mps 749 mmHg 83%
    21:00 +10°C° 0 mm 5 mps 749 mmHg 84%
    22:00 +9°C° 0 mm 5 mps 748 mmHg 85%
    23:00 +9°C° 0 mm 5 mps 748 mmHg 86%

    Tomorrow, 18 October, Friday

    Time Temperature Precipitation Wind Pressure Humidity
    00:00 +9°C° 0 mm 5 mps 748 mmHg 88%
    01:00 +9°C° 0 mm 5 mps 747 mmHg 89%
    02:00 +9°C° 0 mm 5 mps 747 mmHg 90%
    03:00 +9°C° 0 mm 5 mps 747 mmHg 91%
    04:00 +8°C° 0 mm 5 mps 747 mmHg 92%
    05:00 +8°C° 0 mm 5 mps 746 mmHg 93%
    06:00 +8°C° 0 mm 4 mps 746 mmHg 95%
    07:00 +10°C° 0 mm 4 mps 746 mmHg 93%
    08:00 +9°C° 0 mm 5 mps 746 mmHg 91%
    09:00 +10°C° 0 mm 5 mps 746 mmHg 89%
    10:00 +12°C° 0 mm 5 mps 747 mmHg 84%
    11:00 +13°C° 0 mm 4 mps 747 mmHg 80%
    12:00 +13°C° 0 mm 4 mps 747 mmHg 75%
    13:00 +13°C° 0 mm 4 mps 747 mmHg 74%
    14:00 +13°C° 0 mm 4 mps 747 mmHg 74%
    15:00 +13°C° 0 mm 4 mps 747 mmHg 73%
    16:00 +13°C° 0 mm 3 mps 747 mmHg 77%
    17:00 +13°C° 0 mm 2 mps 747 mmHg 81%
    18:00 +12°C° 0 mm 2 mps 747 mmHg 85%
    19:00 +12°C° 0 mm 2 mps 748 mmHg 85%
    20:00 +12°C° 0 mm 2 mps 748 mmHg 86%
    21:00 +12°C° 0 mm 2 mps 748 mmHg 86%
    22:00 +10°C° 0 mm 2 mps 749 mmHg 87%
    23:00 +10°C° 0 mm 2 mps 749 mmHg 87%

    Day after tomorrow, 19 October, Saturday

    Time Temperature Precipitation Wind Pressure Humidity
    00:00 +10°C° 0 mm 2 mps 749 mmHg 88%
    01:00 +10°C° 0 mm 2 mps 749 mmHg 90%
    02:00 +9°C° 0 mm 2 mps 749 mmHg 91%
    03:00 +9°C° 0 mm 2 mps 750 mmHg 93%
    04:00 +9°C° 0 mm 2 mps 750 mmHg 94%
    05:00 +8°C° 0 mm 2 mps 750 mmHg 95%
    06:00 +9°C° 0 mm 1 mps 751 mmHg 96%
    07:00 +10°C° 0 mm 1 mps 751 mmHg 93%
    08:00 +10°C° 0 mm 1 mps 752 mmHg 91%
    09:00 +10°C° 0 mm 1 mps 752 mmHg 88%
    10:00 +11°C° 0 mm 1 mps 752 mmHg 85%
    11:00 +11°C° 0 mm 1 mps 752 mmHg 81%
    12:00 +12°C° 0 mm 1 mps 753 mmHg 78%
    13:00 +12°C° 0 mm 1 mps 753 mmHg 76%
    14:00 +11°C° 0 mm 0 mps 753 mmHg 75%
    15:00 +12°C° 0 mm 0 mps 753 mmHg 73%
    16:00 +12°C° 0 mm 1 mps 753 mmHg 76%
    17:00 +11°C° 0 mm 1 mps 753 mmHg 79%
    18:00 +11°C° 0 mm 1 mps 753 mmHg 82%
    19:00 +10°C° 0 mm 1 mps 753 mmHg 85%
    20:00 +9°C° 0 mm 2 mps 754 mmHg 88%
    21:00 +8°C° 0 mm 2 mps 754 mmHg 91%
    22:00 +8°C° 0 mm 2 mps 754 mmHg 91%
    23:00 +7°C° 0 mm 2 mps 754 mmHg 92%

    20 October, Sunday

    Time Temperature Precipitation Wind Pressure Humidity
    00:00 +7°C° 0 mm 2 mps 754 mmHg 93%
    01:00 +7°C° 0 mm 2 mps 754 mmHg 93%
    02:00 +7°C° 0 mm 2 mps 754 mmHg 93%
    03:00 +7°C° 0 mm 2 mps 754 mmHg 93%
    04:00 +7°C° 0 mm 2 mps 754 mmHg 94%
    05:00 +7°C° 0 mm 3 mps 754 mmHg 94%
    06:00 +7°C° 0 mm 3 mps 754 mmHg 95%
    07:00 +7°C° 0 mm 3 mps 754 mmHg 92%
    08:00 +8°C° 0 mm 3 mps 754 mmHg 88%
    09:00 +9°C° 0 mm 3 mps 754 mmHg 85%
    10:00 +11°C° 0 mm 3 mps 754 mmHg 81%
    11:00 +12°C° 0 mm 4 mps 754 mmHg 77%
    12:00 +13°C° 0 mm 4 mps 754 mmHg 72%
    13:00 +13°C° 0 mm 4 mps 754 mmHg 72%
    14:00 +14°C° 0 mm 4 mps 754 mmHg 72%
    15:00 +14°C° 0 mm 4 mps 754 mmHg 71%
    16:00 +13°C° 0 mm 3 mps 754 mmHg 75%
    17:00 +12°C° 0 mm 3 mps 753 mmHg 79%
    18:00 +11°C° 0 mm 3 mps 753 mmHg 83%
    19:00 +11°C° 0 mm 3 mps 753 mmHg 83%
    20:00 +11°C° 0 mm 3 mps 753 mmHg 84%
    21:00 +10°C° 0 mm 3 mps 753 mmHg 84%
    22:00 +10°C° 0 mm 4 mps 753 mmHg 84%
    23:00 +10°C° 0 mm 4 mps 753 mmHg 84%

    21 October, Monday

    Time Temperature Precipitation Wind Pressure Humidity
    00:00 +10°C° 0 mm 4 mps 753 mmHg 84%
    01:00 +10°C° 0 mm 4 mps 753 mmHg 85%
    02:00 +10°C° 0 mm 4 mps 753 mmHg 86%
    03:00 +8°C° 0 mm 4 mps 753 mmHg 87%
    04:00 +8°C° 0 mm 4 mps 753 mmHg 87%
    05:00 +8°C° 0 mm 4 mps 752 mmHg 87%
    06:00 +8°C° 0 mm 4 mps 752 mmHg 87%
    07:00 +10°C° 0 mm 4 mps 752 mmHg 85%
    08:00 +10°C° 0 mm 4 mps 752 mmHg 83%
    09:00 +11°C° 0 mm 4 mps 752 mmHg 81%
    10:00 +12°C° 0 mm 5 mps 752 mmHg 77%
    11:00 +13°C° 0 mm 5 mps 752 mmHg 73%
    12:00 +14°C° 0 mm 5 mps 752 mmHg 69%
    13:00 +15°C° 0 mm 5 mps 752 mmHg 68%
    14:00 +15°C° 0 mm 5 mps 751 mmHg 67%
    15:00 +15°C° 0 mm 5 mps 751 mmHg 66%
    16:00 +14°C° 0 mm 5 mps 751 mmHg 70%
    17:00 +13°C° 0 mm 5 mps 751 mmHg 75%
    18:00 +12°C° 0 mm 4 mps 750 mmHg 79%
    19:00 +12°C° 0 mm 5 mps 750 mmHg 80%
    20:00 +12°C° 0 mm 5 mps 750 mmHg 82%
    21:00 +10°C° 0 mm 5 mps 750 mmHg 83%
    22:00 +10°C° 0 mm 5 mps 750 mmHg 82%
    23:00 +10°C° 0 mm 5 mps 750 mmHg 81%

    22 October, Tuesday

    Time Temperature Precipitation Wind Pressure Humidity
    00:00 +12°C° 0 mm 5 mps 749 mmHg 80%
    01:00 +10°C° 0 mm 5 mps 749 mmHg 81%
    02:00 +11°C° 0 mm 4 mps 749 mmHg 81%
    03:00 +11°C° 0 mm 4 mps 749 mmHg 82%
    04:00 +11°C° 0 mm 4 mps 749 mmHg 84%
    05:00 +10°C° 0 mm 4 mps 748 mmHg 87%
    06:00 +9°C° 0 mm 5 mps 748 mmHg 89%
    07:00 +9°C° 0 mm 5 mps 748 mmHg 87%
    08:00 +10°C° 0 mm 5 mps 748 mmHg 84%
    09:00 +10°C° 0 mm 5 mps 748 mmHg 81%
    10:00 +11°C° 0 mm 6 mps 747 mmHg 76%
    11:00 +13°C° 0 mm 6 mps 747 mmHg 71%
    12:00 +14°C° 0 mm 6 mps 747 mmHg 66%
    13:00 +15°C° 0 mm 6 mps 746 mmHg 65%
    14:00 +15°C° 0 mm 6 mps 746 mmHg 64%
    15:00 +15°C° 0 mm 6 mps 745 mmHg 63%
    16:00 +14°C° 0 mm 6 mps 745 mmHg 65%
    17:00 +14°C° 0 mm 6 mps 744 mmHg 68%
    18:00 +13°C° 0 mm 5 mps 744 mmHg 70%
    19:00 +13°C° 0 mm 5 mps 744 mmHg 70%
    20:00 +13°C° 0 mm 5 mps 743 mmHg 70%
    21:00 +13°C° 0 mm 5 mps 743 mmHg 70%
    22:00 +13°C° 0 mm 5 mps 743 mmHg 72%
    23:00 +13°C° 0 mm 5 mps 743 mmHg 74%
    Show more